Regional Weather Roundup
Issued by NWS Albany, NY

Home | Current Version | Previous Version | Text Only | Print | Product List | Glossary On
Versions: 1 2 3 4 5 6 7 8 9 10 11 12 13 14 15 16 17 18 19 20 21 22 23 24 25 26 27 28 29 30 31 32 33 34 35 36 37 38 39 40 41 42 43 44 45 46
000
ASUS41 KALY 211010
RWRALY

NEW YORK STATE HOURLY WEATHER ROUNDUP
NATIONAL WEATHER SERVICE ALBANY NY
500 AM EST SUN DEC 21 2014

NOTE: "FAIR" INDICATES FEW OR NO CLOUDS BELOW 12,000 FEET WITH NO
SIGNIFICANT WEATHER AND/OR NO OBSTRUCTIONS TO VISIBILITY.

NYZ032-033-038>043-046>054-057>066-NYZ062>081-211100-
EAST


CITY           SKY/WX    TMP DP  RH WIND       PRES   REMARKS
ALBANY         FLURRIES  28  20  71 CALM      30.31S
GLENS FALLS    CLOUDY    24  19  81 E3        30.30S
POUGHKEEPSIE   LGT SNOW  29  24  82 N3        30.28F
NEWBURGH       CLOUDY    27  27 100 MISG      30.27F FOG
MONTGOMERY     CLOUDY    28  24  85 N3        30.27F
WHITE PLAINS   CLOUDY    29  24  82 N7        30.24F WCI  22
ISLIP          CLOUDY    33  25  72 W7        30.25S WCI  27
NEW YORK CITY  CLOUDY    32  24  72 NW6       30.27F WCI  26
CENTRAL PARK   CLOUDY    31  23  72 N3        30.29F
$$

NYZ005>009-017-018-044>046-055-056-211100-
CENTRAL


CITY           SKY/WX    TMP DP  RH WIND       PRES   REMARKS
FULTON         CLOUDY    26  21  81 E3        30.28F
SYRACUSE       CLOUDY    26  24  92 E3        30.29S
ROME           CLOUDY    25  20  81 CALM      30.31S
ELMIRA         CLOUDY    28  22  78 CALM      30.26S
BINGHAMTON     CLOUDY    24  19  81 NW5       30.21F WCI  18
MONTICELLO     CLOUDY    25  25 100 NW3       30.22S
$$

NYZ026>034-041>043-211100-
NORTH


CITY           SKY/WX    TMP DP  RH WIND       PRES   REMARKS
WATERTOWN      CLOUDY    26  20  77 CALM      30.29F
FORT DRUM      NOT AVBL
MASSENA        CLOUDY    13  10  88 E5        30.35F FOG     WCI   5
SARANAC LAKE   CLOUDY    15  32 100 CALM      30.19F
PLATTSBURGH    CLOUDY    17  15  92 NW5       30.34F FOG     WCI  10
$$

NYZ001>004-010>016-019>021-211100-
WEST


CITY           SKY/WX    TMP DP  RH WIND       PRES   REMARKS
NIAGARA FALLS  MOCLDY    25  22  88 CALM      30.27S
BUFFALO        MOCLDY    28  22  78 SW3       30.26S
DUNKIRK        CLOUDY    29  23  78 S7        30.27F WCI  22
JAMESTOWN      CLOUDY    25  19  80 S6        30.22S WCI  18
WELLSVILLE     CLOUDY    24  21  88 W5        30.20S WCI  18
ROCHESTER      CLOUDY    28  22  78 SW3       30.27F
PENN YAN       CLOUDY    29  22  75 SW3       30.25F
$$

             KEY
       WCI = WIND CHILL INDEX
       VSB = VISIBILITY
       HX  = HEAT INDEX
$$



USA.gov is the U.S. government's official web portal to all federal, state and local government web resources and services.